Flag for Germany Weather past 2 weeks in Regensburg, Bavaria, Germany

Now
79 °F

Scattered clouds.


Feels Like: 80 °F
Forecast: 60 / 76 °F
Wind: 2 mph from Southwest

Location: Regensburg

Current Time: Jul 28, 2014 at 3:29:10 PM

Latest Report: Jul 28, 2014 at 3:00 PM


Visibility: 9 mi

Pressure: 29.80 "Hg

Humidity: 60%

Dew point: 64 °F

Location of RegensburgLocation

Historic Weather in Regensburg — Graph

°F

Regensburg temperature yesterday

Maximum temperature yesterday: 80 °F (at 2:00 PM)
Minimum temperature yesterday: 62 °F (at 6:00 AM)
Average temperature yesterday: 70 °F

Past Weeks' High & Low Weather Summary

 TemperatureHumidityPressure
High91 °F (Jul 20, 3:00 PM)97% (Jul 15, 6:00 AM)30.17 "Hg (Jul 15, 6:00 AM)
Low55 °F (Jul 24, 6:00 AM)26% (Jul 18, 7:00 PM)29.74 "Hg (Jul 20, 4:00 PM)
Average70 °F68%29.94 "Hg
* Reported Jul 13 2:00 PM — Jul 28 2:00 PM, Regensburg, Weather by CustomWeather, © 2014

Note: Actual official high and low records may vary slightly from our data, if they occured in-between our weather recording intervals... More about our weather records

Advertising

Regensburg weather history for previous 24 hours

 ConditionsComfort  
Time TempWeatherWind HumidityBarometerVisibility
2:00 PM
Jul 28
73 °FOvercast.1 mph67%29.85 "Hg6 mi
1:00 PM71 °FOvercast.2 mph74%29.87 "Hg4 mi
12:00 PM67 °FFog.1 mph82%29.89 "Hg4 mi
11:00 AM67 °FFog.1 mph83%29.90 "Hg4 mi
10:00 AM65 °FFog.2 mph85%29.91 "Hg3 mi
9:00 AM65 °FFog.1 mph86%29.92 "Hg4 mi
8:00 AM63 °FFog.1 mph89%29.92 "Hg3 mi
7:00 AM62 °FFog.No wind92%29.93 "Hg4 mi
6:00 AM61 °FFog.1 mph95%29.93 "Hg3 mi
5:00 AM61 °FFog.1 mph96%29.94 "Hg4 mi
4:00 AM61 °FFog.No wind96%29.94 "Hg4 mi
3:00 AM61 °FFog.1 mph95%29.94 "Hg4 mi
2:00 AM62 °FFog.1 mph95%29.95 "Hg4 mi
1:00 AM63 °FClear.1 mph93%29.96 "Hg6 mi
12:00 AM63 °FClear.2 mph91%29.96 "Hg8 mi
11:00 PM
Jul 27
64 °FClear.2 mph87%29.96 "Hg11 mi
10:00 PM66 °FClear.2 mph81%29.95 "Hg13 mi
9:00 PM68 °FClear.3 mph76%29.94 "Hg16 mi
8:00 PM71 °FSunny.3 mph69%29.93 "Hg14 mi
7:00 PM73 °FSunny.3 mph66%29.90 "Hg12 mi
6:00 PM79 °FSunny.3 mph55%29.87 "Hg14 mi
5:00 PM77 °FSunny.2 mph54%29.88 "Hg13 mi
4:00 PM79 °FSunny.3 mph49%29.89 "Hg11 mi
3:00 PM80 °FPassing clouds.3 mph51%29.89 "Hg9 mi
Weather by CustomWeather, © 2014

See weather overviewHow to use our weather pages